Weather History for KCVX - December, 2013

Change the Weather History Date:

Sunday, December 8, 2013

  Actual Average Record
Temperature  
Mean Temperature 19 °F -  
Max Temperature 22 °F 31 °F 41 °F (2004)
Min Temperature 17 °F 24 °F 17 °F (2002)
Degree Days  
Heating Degree Days 46    
Moisture  
Dew Point 13 °F    
Average Humidity 78    
Maximum Humidity 93    
Minimum Humidity 62    
Precipitation  
Precipitation 0.00 in - - ()
Sea Level Pressure  
Sea Level Pressure 30.38 in    
Wind  
Wind Speed 11 mph (SSE)    
Max Wind Speed 17 mph    
Max Gust Speed 23 mph    
Visibility 6 miles    
Events Snow    
Averages and records for this station are not official NWS values.
T = Trace of Precipitation, MM = Missing Value Source: NWS Daily Summary

Daily Weather History Graph

Daily Weather History Graph

Search for Another Location

Airport or City:

Trip Planner

Search our weather history database for the weather conditions in past years. The results will help you decide how hot, cold, wet, or windy it might be!

Date:

Astronomy

Dec. 08, 2013 Rise Set
Actual Time 8:07 AM EST 4:58 PM EST
Civil Twilight 7:34 AM EST 5:32 PM EST
Nautical Twilight 6:56 AM EST 6:09 PM EST
Astronomical Twilight 6:21 AM EST 6:45 PM EST
Moon 12:14 PM EST (12/8) No Moon Set
Length of Visible Light 9h 58m
Length of Day
8h 50m
Waxing Crescent, 40% of the Moon is Illuminated
Dec 8
Waxing Crescent
Dec 9
First Quarter
Dec 17
Full
Dec 25
Last Quarter
Jan 1
New

Hourly Weather History & Observations

Time (EST) Temp. Windchill Dew Point Humidity Pressure Visibility Wind Dir Wind Speed Gust Speed Precip Events Conditions
12:15 AM 19.4 °F 4.5 °F 8.2 °F 62% 30.52 in 10.0 mi West 17.3 mph - N/A   Overcast
12:35 AM 19.4 °F 4.5 °F 9.1 °F 64% 30.52 in 10.0 mi West 17.3 mph 20.7 mph N/A   Overcast
12:54 AM 19.2 °F 5.3 °F 9.0 °F 64% 30.51 in 10.0 mi West 15.0 mph 21.9 mph N/A   Overcast
1:15 AM 18.9 °F 4.8 °F 8.6 °F 64% 30.51 in 10.0 mi West 15.0 mph 23.0 mph N/A   Overcast
1:35 AM 18.5 °F 4.3 °F 7.3 °F 62% 30.51 in 10.0 mi West 15.0 mph - N/A   Mostly Cloudy
1:54 AM 18.9 °F 5.3 °F 8.6 °F 64% 30.50 in 10.0 mi West 13.8 mph - N/A   Mostly Cloudy
2:15 AM 18.5 °F 4.3 °F 7.9 °F 63% 30.50 in 10.0 mi West 15.0 mph - N/A   Mostly Cloudy
2:35 AM 18.3 °F 5.2 °F 7.3 °F 62% 30.50 in 10.0 mi West 12.7 mph 19.6 mph N/A   Mostly Cloudy
2:54 AM 18.5 °F 7.5 °F 9.0 °F 66% 30.50 in 10.0 mi WNW 9.2 mph - N/A   Overcast
3:15 AM 18.5 °F 4.9 °F 9.7 °F 68% 30.50 in 10.0 mi West 13.8 mph - N/A   Overcast
3:35 AM 18.1 °F 5.0 °F 9.7 °F 70% 30.51 in 10.0 mi West 12.7 mph - N/A   Overcast
3:54 AM 17.6 °F 3.2 °F 9.3 °F 70% 30.51 in 10.0 mi West 15.0 mph 20.7 mph N/A   Overcast
4:15 AM 17.6 °F 5.0 °F 9.5 °F 71% 30.51 in 10.0 mi West 11.5 mph 18.4 mph N/A   Overcast
4:35 AM 17.6 °F 3.7 °F 8.8 °F 68% 30.51 in 10.0 mi West 13.8 mph 20.7 mph N/A   Overcast
4:55 AM 17.4 °F 4.1 °F 8.8 °F 69% 30.51 in 10.0 mi West 12.7 mph - N/A   Overcast
5:15 AM 17.2 °F 5.2 °F 8.4 °F 68% 30.51 in 10.0 mi West 10.4 mph 17.3 mph N/A   Overcast
5:34 AM 17.2 °F 4.5 °F 9.0 °F 70% 30.52 in 10.0 mi West 11.5 mph - N/A   Overcast
5:55 AM 17.2 °F 6.8 °F 9.3 °F 71% 30.53 in 7.0 mi West 8.1 mph - N/A Snow Light Snow
6:14 AM 17.2 °F 5.2 °F 9.0 °F 70% 30.53 in 10.0 mi West 10.4 mph - N/A Snow Light Snow
6:35 AM 17.4 °F 9.1 °F 10.0 °F 73% 30.53 in 10.0 mi WSW 5.8 mph - N/A Snow Light Snow
6:55 AM 17.6 °F 5.7 °F 10.9 °F 75% 30.51 in 7.0 mi West 10.4 mph - N/A Snow Light Snow
7:15 AM 17.6 °F 9.3 °F 10.8 °F 75% 30.51 in 10.0 mi West 5.8 mph - N/A Snow Light Snow
7:35 AM 17.6 °F 8.2 °F 10.9 °F 75% 30.50 in 4.0 mi West 6.9 mph - N/A Snow Light Snow
7:55 AM 17.6 °F 10.7 °F 11.3 °F 76% 30.50 in 7.0 mi West 4.6 mph - N/A Snow Light Snow
8:15 AM 17.4 °F 12.1 °F 11.8 °F 79% 30.49 in 4.0 mi South 3.5 mph - N/A Snow Light Snow
8:35 AM 17.1 °F 11.7 °F 12.0 °F 81% 30.49 in 7.0 mi SSW 3.5 mph - N/A Snow Light Snow
8:54 AM 17.2 °F - 11.8 °F 79% 30.48 in 7.0 mi Calm Calm - N/A   Overcast
9:15 AM 17.6 °F 10.7 °F 12.0 °F 79% 30.48 in 10.0 mi South 4.6 mph - N/A   Overcast
9:35 AM 17.6 °F - 11.8 °F 78% 30.47 in 10.0 mi Calm Calm - N/A   Overcast
9:54 AM 17.6 °F 9.3 °F 11.8 °F 78% 30.49 in 10.0 mi South 5.8 mph - N/A Snow Light Snow
10:15 AM 18.1 °F 10.0 °F 11.5 °F 75% 30.50 in 7.0 mi South 5.8 mph - N/A Snow Light Snow
10:35 AM 17.6 °F 9.3 °F 12.9 °F 82% 30.49 in 1.5 mi South 5.8 mph - N/A Snow Light Snow
10:54 AM 17.6 °F 10.7 °F 13.1 °F 83% 30.48 in 3.0 mi South 4.6 mph - N/A Snow Light Snow
11:15 AM 18.0 °F 11.1 °F 13.3 °F 82% 30.48 in 2.0 mi South 4.6 mph - N/A Snow Light Snow
11:35 AM 18.0 °F 11.1 °F 13.8 °F 84% 30.46 in 1.5 mi SSE 4.6 mph - N/A Snow Light Snow
11:54 AM 18.1 °F 10.0 °F 13.5 °F 82% 30.45 in 2.5 mi SSE 5.8 mph - N/A Snow Light Snow
12:15 PM 18.5 °F 10.4 °F 13.8 °F 82% 30.44 in 1.8 mi SSE 5.8 mph - N/A Snow Light Snow
12:35 PM 18.3 °F 10.2 °F 13.6 °F 82% 30.43 in 1.8 mi SE 5.8 mph - N/A Snow Light Snow
12:55 PM 18.5 °F 10.4 °F 14.0 °F 83% 30.42 in 1.5 mi SE 5.8 mph - N/A Snow Light Snow
1:15 PM 18.5 °F 10.4 °F 14.5 °F 85% 30.42 in 1.8 mi SE 5.8 mph - N/A Snow Light Snow
1:35 PM 18.5 °F 10.4 °F 14.5 °F 85% 30.41 in 1.8 mi SSE 5.8 mph - N/A Snow Light Snow
1:55 PM 18.5 °F 10.4 °F 14.9 °F 86% 30.40 in 1.5 mi SE 5.8 mph - N/A Snow Light Snow
2:15 PM 18.3 °F 9.1 °F 13.8 °F 83% 30.39 in 2.5 mi SE 6.9 mph - N/A Snow Light Snow
2:34 PM 18.5 °F 10.4 °F 13.8 °F 82% 30.38 in 2.5 mi SE 5.8 mph - N/A Snow Light Snow
2:55 PM 18.5 °F 10.4 °F 14.4 °F 84% 30.37 in 1.8 mi SE 5.8 mph - N/A Snow Light Snow
3:15 PM 18.5 °F 8.4 °F 14.5 °F 85% 30.35 in 2.5 mi SE 8.1 mph - N/A Snow Light Snow
3:34 PM 18.5 °F 10.4 °F 14.4 °F 84% 30.35 in 7.0 mi SSE 5.8 mph - N/A Snow Light Snow
3:55 PM 18.5 °F 9.3 °F 13.1 °F 79% 30.34 in 5.0 mi ESE 6.9 mph - N/A   Haze
4:15 PM 18.5 °F 8.4 °F 13.8 °F 82% 30.33 in 3.0 mi SE 8.1 mph - N/A Snow Light Snow
4:34 PM 18.5 °F 9.3 °F 14.2 °F 83% 30.32 in 3.0 mi SE 6.9 mph - N/A Snow Light Snow
4:55 PM 18.9 °F 9.8 °F 14.7 °F 84% 30.30 in 5.0 mi ESE 6.9 mph - N/A   Overcast
5:15 PM 19.2 °F 9.3 °F 13.8 °F 80% 30.29 in 10.0 mi East 8.1 mph - N/A   Overcast
5:34 PM 19.8 °F 7.7 °F 14.4 °F 80% 30.28 in 10.0 mi ESE 11.5 mph - N/A   Overcast
5:55 PM 19.6 °F 8.1 °F 14.2 °F 80% 30.27 in 10.0 mi ESE 10.4 mph - N/A   Overcast
6:15 PM 19.6 °F 8.9 °F 13.8 °F 78% 30.26 in 10.0 mi SE 9.2 mph - N/A   Overcast
6:35 PM 19.4 °F 7.9 °F 13.5 °F 78% 30.25 in 10.0 mi ESE 10.4 mph - N/A   Overcast
6:55 PM 19.4 °F 7.9 °F 13.1 °F 76% 30.25 in 10.0 mi ESE 10.4 mph - N/A   Overcast
7:14 PM 19.4 °F 9.5 °F 13.6 °F 78% 30.24 in 10.0 mi ESE 8.1 mph - N/A   Overcast
7:35 PM 19.4 °F 8.6 °F 13.1 °F 76% 30.23 in 10.0 mi ESE 9.2 mph - N/A   Overcast
7:55 PM 19.2 °F 8.4 °F 14.0 °F 80% 30.22 in 4.0 mi SE 9.2 mph 18.4 mph N/A Snow Light Snow
8:14 PM 18.9 °F 7.2 °F 14.4 °F 83% 30.22 in 3.0 mi ESE 10.4 mph - N/A Snow Light Snow
8:35 PM 19.0 °F 9.0 °F 14.9 °F 84% 30.20 in 5.0 mi ESE 8.1 mph - N/A Snow Light Snow
8:55 PM 19.4 °F 8.6 °F 15.6 °F 85% 30.18 in 3.0 mi ESE 9.2 mph - N/A Snow Light Snow
9:14 PM 19.4 °F 9.5 °F 16.0 °F 87% 30.16 in 2.5 mi ESE 8.1 mph - N/A Snow Light Snow
9:35 PM 20.1 °F 8.8 °F 17.1 °F 88% 30.14 in 3.0 mi East 10.4 mph - N/A Snow Light Snow
9:55 PM 20.3 °F 8.3 °F 17.4 °F 89% 30.14 in 3.0 mi ESE 11.5 mph - N/A Snow Light Snow
10:14 PM 20.7 °F 9.5 °F 17.6 °F 88% 30.12 in 2.5 mi ESE 10.4 mph - N/A Snow Light Snow
10:35 PM 20.7 °F 11.0 °F 18.0 °F 89% 30.10 in 2.5 mi ESE 8.1 mph - N/A Snow Light Snow
10:55 PM 20.5 °F 10.0 °F 17.8 °F 89% 30.09 in 2.5 mi ESE 9.2 mph - N/A Snow Light Snow
11:15 PM 21.0 °F 12.4 °F 18.9 °F 91% 30.08 in 2.5 mi ESE 6.9 mph - N/A Snow Light Snow
11:35 PM 21.9 °F 11.0 °F 20.3 °F 93% 30.06 in 2.5 mi East 10.4 mph - N/A Snow Light Snow
11:55 PM 21.9 °F 11.7 °F 19.9 °F 92% 30.04 in 2.0 mi East 9.2 mph - N/A Snow Light Snow